Regional Weather Roundup
Issued by NWS Burlington, VT

Home | Current Version | Previous Version | Text Only | Print | Product List | Glossary On
Versions: 1 2 3 4 5 6 7 8 9 10 11 12 13 14 15 16 17 18 19 20 21 22 23 24 25 26 27 28 29 30 31 32 33 34 35 36 37 38 39 40 41 42 43 44 45 46 47 48 49 50
000
ASUS41 KBTV 291330
RWRBTV
VERMONT REGIONAL WEATHER ROUNDUP
NATIONAL WEATHER SERVICE BURLINGTON VT
900 AM EDT WED JUL 29 2015

NOTE: "FAIR" INDICATES FEW OR NO CLOUDS BELOW 12,000 FEET WITH NO
SIGNIFICANT WEATHER AND/OR OBSTRUCTIONS TO VISIBILITY.

* THESE REPORTS ARE NOT UNDER NWS QUALITY CONTROL AND/OR DO NOT
  REPORT WEATHER SUCH AS PRECIPITATION AND FOG.

VTZ001>019-291400-
_____VERMONT_____


CITY           SKY/WX    TMP DP  RH WIND       PRES   REMARKS
BURLINGTON     MOSUNNY   79  65  62 S8        29.97R
MONTPELIER     MOSUNNY   74  66  76 CALM      30.04S
MORRISVILLE    CLOUDY    72  66  81 CALM      30.00F
ST. JOHNSBURY*   N/A     69  63  81 MISG      29.98S
LYNDONVILLE*   FAIR      72  65  80 CALM      30.02S
MIDDLEBURY*    FAIR      79  67  68 S6        29.99R
SPRINGFIELD    PTSUNNY   73  63  70 CALM      30.01R
HIGHGATE*      FAIR      78  67  67 S3        29.95S
NEWPORT*       FAIR      76  69  78 SW3       29.99S
BENNINGTON     MOSUNNY   75  66  73 CALM      30.03R
MT. MANSFIELD*   N/A     68 N/A N/A NW5         N/A

_____LAKE CHAMPLAIN_____


CITY           SKY/WX    TMP DP  RH WIND       PRES   REMARKS
COLCHESTER RF*   N/A     73  66  78 S16         N/A
DIAMOND ISL*     N/A     72  66  83 SW8         N/A

$$

NYZ007-026>031-035-052-083-291400-
_____NORTHERN NEW YORK_____


CITY           SKY/WX    TMP DP  RH WIND       PRES   REMARKS
PLATTSBURGH    MOSUNNY   74  69  85 SE7       29.95S
SARANAC LAKE   SUNNY     73  62  68 VRB5      30.03S
MASSENA        MOSUNNY   76  63  64 SW9       29.96R
OGDENSBURG*    SUNNY     79  66  65 SW7       29.95F
WATERTOWN      PTSUNNY   77  66  68 VRB3      29.97F
FT DRUM        PTSUNNY   80  66  61 SW7       29.99R
ALBANY         PTSUNNY   77  64  64 CALM      30.00S
GLENS FALLS    MOSUNNY   74  68  81 VRB3      30.00R

$$
NHZ002-005-011-291400-
_____NEW HAMPSHIRE_____


CITY           SKY/WX    TMP DP  RH WIND       PRES   REMARKS
LEBANON        MOSUNNY   72  64  76 CALM      30.00R
KEENE          MOSUNNY   73  63  68 CALM      30.01R
MT WASHINGTON  FOG       57  57 100 NW22        N/A  VSB 0
PLYMOUTH       FAIR      70  70 100 CALM      29.98F
WHITEFIELD     SUNNY     74  65  73 CALM      30.01S

$$

_____REGIONAL QUEBEC LOCATIONS_____


CITY           SKY/WX    TMP DP  RH WIND       PRES   REMARKS
MONTREAL       PTSUNNY   77  66  69 W9        29.94R
QUEBEC CITY    MOSUNNY   72  57  60 NE6       29.95S
SHERBROOKE     SUNNY     75  66  73 SW3       29.97S

_____REGIONAL ONTARIO LOCATIONS_____


CITY           SKY/WX    TMP DP  RH WIND       PRES   REMARKS
OTTAWA         PTSUNNY   77  70  78 W6        29.95R

______KEY______
VSB  - VISIBILITY IN MILES
WCI  - WIND CHILL INDEX
HX   - HEAT INDEX
$$
NNNN



USA.gov is the U.S. government's official web portal to all federal, state and local government web resources and services.